[[{"header":{"parameterUnit":"m.s-1","parameterCategory":1,"la1":30.2991,"la2":30.254,"lo1":-89.0895,"lo2":-89.0444,"dy":0.0017,"dx":0.0017,"nx":28,"ny":28,"refTime":"2024-03-30T21:00:00:Z","depth":0,"parameterNumber":2,"parameterNumberName":"U-component_of_WINDS"},"data":[0,0,0,0,0,0,0,0,0,0,0,0,0,0,0,0,0,0,0,0,0,0,0,0,0,0,0,0,0,0,0,0,0,0,0,0,0,0,0,0,0,0,0,0,0,0,0,0,0,0,0,0,0,0,0,0,0,0,-1.2047,-1.2047,0,-1.207,-1.2071,-1.2071,-1.2061,-1.206,-1.206,-1.2059,-1.2085,-1.2086,-1.2087,0,0,0,0,0,0,0,0,0,0,0,0,0,-1.1994,-1.1995,-1.2047,-1.2047,-1.2047,-1.207,-1.2071,-1.2071,-1.2061,-1.206,-1.206,-1.2059,-1.2085,-1.2086,-1.2088,0,0,0,0,0,0,0,0,0,0,0,0,0,-1.2017,-1.1995,-1.2047,-1.2045,-1.2045,-1.207,-1.2071,-1.2071,-1.2061,-1.206,-1.2059,-1.2059,-1.2084,-1.2086,-1.2088,-1.2116,0,0,-1.2093,-1.2094,0,0,0,0,0,0,0,0,-1.2016,-1.2019,-1.2045,-1.2045,-1.2045,-1.2062,-1.2062,-1.2086,-1.2061,-1.2055,-1.2059,-1.2058,-1.2078,-1.208,-1.2087,-1.2118,-1.2119,-1.2094,-1.2095,-1.2095,-1.2096,0,0,0,0,0,0,0,-1.2014,-1.2018,-1.2056,-1.2045,-1.2046,-1.2044,-1.2046,-1.2066,-1.2071,-1.2056,-1.2055,-1.2058,-1.2078,-1.2085,-1.2087,-1.2119,-1.2093,-1.2095,-1.2096,-1.2097,-1.2175,-1.2176,0,0,0,0,0,0,-1.2012,-1.2017,-1.2055,-1.2057,-1.2028,-1.2045,-1.2048,-1.2057,-1.2071,-1.2072,-1.2059,-1.2057,-1.2082,-1.2085,-1.2088,-1.2122,-1.2095,-1.2097,-1.2098,-1.2174,-1.2175,-1.2176,0,0,0,0,0,0,-1.2011,-1.2016,-1.2054,-1.2037,-1.2041,-1.2047,-1.2058,-1.2058,-1.2065,-1.2073,-1.2074,-1.2065,-1.2082,-1.2086,-1.2109,-1.2123,-1.2098,-1.21,-1.2173,-1.2174,-1.2176,-1.2191,0,0,0,0,0,0,-1.201,-1.2016,-1.2026,-1.2037,-1.2042,-1.2075,-1.2059,-1.2059,-1.2068,-1.2067,-1.2079,-1.208,-1.2081,-1.2107,-1.2111,-1.2125,-1.2101,-1.2171,-1.2173,-1.2175,-1.2189,-1.2193,-1.2196,0,0,0,0,0,-1.2008,-1.203,-1.2027,-1.2031,-1.2056,-1.2075,-1.2079,-1.2079,-1.2069,-1.208,-1.2085,-1.208,-1.2121,-1.2109,-1.2114,-1.2129,-1.2171,-1.2173,-1.2175,-1.2188,-1.2192,-1.2196,0,0,0,0,0,0,-1.2021,-1.2031,-1.2028,-1.2054,-1.2064,-1.2074,-1.2087,-1.2084,-1.2097,-1.2095,-1.2095,-1.2098,-1.2123,-1.2128,-1.2115,-1.2158,-1.2144,-1.2148,-1.2153,-1.2157,-1.216,-1.2158,-1.2103,0,0,0,0,0,-1.2027,-1.2042,-1.205,-1.2072,-1.2077,-1.2082,-1.209,-1.209,-1.21,-1.2104,-1.2111,-1.2122,-1.2138,-1.2148,-1.2162,-1.2191,-1.2193,-1.2203,-1.2206,-1.2209,-1.2212,-1.2227,-1.2232,-1.2183,-1.2183,-1.2183,0,0,-1.2039,-1.2046,-1.2056,-1.2075,-1.2083,-1.2098,-1.2085,-1.2102,-1.2114,-1.2107,-1.213,-1.2135,-1.2148,-1.2174,-1.2186,-1.2179,-1.2226,-1.2212,-1.2214,-1.2215,-1.223,-1.2234,-1.2238,-1.2185,-1.2184,-1.2184,0,0,-1.2069,-1.2076,-1.2095,-1.2103,-1.2115,-1.2118,-1.2122,-1.2133,-1.2136,-1.2159,-1.2154,-1.2169,-1.2195,-1.2204,-1.2212,-1.2246,-1.2241,-1.2251,-1.2268,-1.2283,-1.2286,-1.229,-1.2302,-1.2306,-1.2254,-1.2254,-1.2254,0,-1.2083,-1.2106,-1.2106,-1.2123,-1.2132,-1.2126,-1.2146,-1.2154,-1.217,-1.2176,-1.2169,-1.2202,-1.221,-1.2238,-1.2246,-1.2253,-1.2258,-1.2249,-1.2286,-1.2289,-1.2292,-1.2304,-1.2308,-1.2255,-1.2255,-1.2254,-1.2254,0,-1.2122,-1.2138,-1.2152,-1.2167,-1.2178,-1.2196,-1.2199,-1.221,-1.2209,-1.2212,-1.2236,-1.2245,-1.2261,-1.2268,-1.2268,-1.2296,-1.2292,-1.2285,-1.2272,-1.2298,-1.2309,-1.2313,-1.2256,-1.2256,-1.2256,-1.2255,0,0,-1.216,-1.2175,-1.218,-1.2187,-1.22,-1.2212,-1.2231,-1.2247,-1.2256,-1.2267,-1.2283,-1.2306,-1.23,-1.2309,-1.2309,-1.2322,-1.2348,-1.2314,-1.2314,-1.232,-1.2381,-1.2385,-1.239,-1.2346,-1.2347,-1.2347,-1.2379,0,-1.2191,-1.2222,-1.2223,-1.2252,-1.2267,-1.2262,-1.2279,-1.2288,-1.2293,-1.2306,-1.2311,-1.2327,-1.2318,-1.2324,-1.2337,-1.2342,-1.236,-1.234,-1.236,-1.2361,-1.2356,-1.2395,-1.24,-1.243,-1.2384,-1.2384,-1.2385,0,-1.223,-1.2242,-1.2273,-1.2284,-1.229,-1.2304,-1.2319,-1.2332,-1.2343,-1.2346,-1.2356,-1.2354,-1.2374,-1.2361,-1.2388,-1.2374,-1.2382,-1.2387,-1.2388,-1.2389,-1.2374,-1.2397,-1.2439,-1.2443,-1.2391,-1.2391,-1.239,0,-1.2254,-1.2279,-1.23,-1.2306,-1.2319,-1.2329,-1.2335,-1.2346,-1.2355,-1.2368,-1.2374,-1.239,-1.2398,-1.241,-1.2413,-1.2403,-1.244,-1.2427,-1.2443,-1.2442,-1.245,-1.2449,-1.2493,-1.2456,-1.2456,-1.2456,-1.2456,0,-1.2288,-1.2306,-1.2311,-1.2324,-1.2345,-1.2346,-1.2367,-1.2372,-1.2382,-1.2396,-1.2394,-1.2407,-1.2411,-1.2425,-1.2428,-1.245,-1.2454,-1.2456,-1.2457,-1.2456,-1.2456,-1.2461,-1.2459,-1.2458,-1.2457,-1.2457,-1.2457,0,-1.2318,-1.2321,-1.2344,-1.2355,-1.2358,-1.2373,-1.2382,-1.2395,-1.2399,-1.2417,-1.2422,-1.2429,-1.2446,-1.245,-1.247,-1.2472,-1.2498,-1.2497,-1.2494,-1.2493,-1.2508,-1.2507,-1.2557,-1.2563,-1.2523,-1.2523,-1.2524,0,-1.2338,-1.2353,-1.2365,-1.2374,-1.238,-1.2395,-1.2405,-1.2407,-1.2417,-1.2431,-1.2442,-1.2459,-1.2472,-1.25,-1.2507,-1.2523,-1.2521,-1.2538,-1.2524,-1.2523,-1.2521,-1.252,-1.2521,-1.254,-1.2541,-1.2541,-1.2541,0,-1.2375,-1.2376,-1.2389,-1.2404,-1.2415,-1.2426,-1.2437,-1.2445,-1.2449,-1.246,-1.2477,-1.2488,-1.2509,-1.2525,-1.2541,-1.2548,-1.2546,-1.2546,-1.255,-1.255,-1.2547,-1.2548,-1.25,-1.2545,-1.2544,-1.2544,-1.2544,-1.2544,-1.24,-1.2413,-1.2423,-1.2438,-1.2447,-1.2457,-1.2469,-1.2475,-1.2489,-1.2506,-1.2507,-1.2525,-1.2537,-1.2558,-1.2566,-1.2581,-1.2576,-1.2582,-1.2584,-1.2585,-1.2586,-1.2545,-1.2584,-1.2584,-1.2584,-1.2584,-1.2584,0,-1.2436,-1.2443,-1.2457,-1.2472,-1.2484,-1.248,-1.2492,-1.2503,-1.2519,-1.253,-1.2543,-1.2563,-1.2579,-1.2587,-1.2604,-1.2614,-1.2613,-1.2618,-1.2617,-1.2619,-1.259,-1.2584,-1.2619,-1.2619,-1.2618,-1.2618,-1.2618,-1.2618,-1.2456,-1.2477,-1.2479,-1.2504,-1.2511,-1.2528,-1.2536,-1.2545,-1.2554,-1.2576,-1.2589,-1.2594,-1.2605,-1.2622,-1.2637,-1.2639,-1.2645,-1.265,-1.2652,-1.2624,-1.2621,-1.2617,-1.2612,-1.2652,-1.2652,-1.2679,-1.268,-1.268]},{"header":{"parameterUnit":"m.s-1","parameterCategory":1,"la1":30.2991,"la2":30.254,"lo1":-89.0895,"lo2":-89.0444,"dy":0.0017,"dx":0.0017,"nx":28,"ny":28,"refTime":"2024-03-30T21:00:00:Z","depth":0,"parameterNumber":3,"parameterNumberName":"V-component_of_WINDS"},"data":[0,0,0,0,0,0,0,0,0,0,0,0,0,0,0,0,0,0,0,0,0,0,0,0,0,0,0,0,0,0,0,0,0,0,0,0,0,0,0,0,0,0,0,0,0,0,0,0,0,0,0,0,0,0,0,0,0,0,2.2816,2.2816,0,2.2815,2.2815,2.2815,2.2774,2.2773,2.2772,2.2771,2.277,2.2771,2.2772,0,0,0,0,0,0,0,0,0,0,0,0,0,2.2786,2.2787,2.2816,2.2816,2.2816,2.2815,2.2815,2.2815,2.2774,2.2773,2.2771,2.277,2.277,2.2771,2.2772,0,0,0,0,0,0,0,0,0,0,0,0,0,2.2794,2.2787,2.2816,2.2796,2.2794,2.2815,2.2815,2.2815,2.2774,2.2773,2.2771,2.2769,2.277,2.2771,2.2772,2.2814,0,0,2.2777,2.2778,0,0,0,0,0,0,0,0,2.2793,2.2795,2.2799,2.2797,2.2795,2.2793,2.2804,2.2814,2.2775,2.2782,2.2771,2.2769,2.2779,2.278,2.2783,2.2813,2.2813,2.2777,2.2778,2.2779,2.2779,0,0,0,0,0,0,0,2.2793,2.2795,2.2816,2.2799,2.2797,2.2787,2.2787,2.2806,2.2789,2.2781,2.2778,2.2778,2.2778,2.2782,2.2783,2.2813,2.2777,2.2778,2.2779,2.278,2.2879,2.2881,0,0,0,0,0,0,2.2795,2.2794,2.2816,2.2816,2.279,2.2789,2.2788,2.2795,2.2789,2.2787,2.278,2.2776,2.278,2.2781,2.2783,2.2831,2.2779,2.278,2.2781,2.2878,2.288,2.2882,0,0,0,0,0,0,2.2794,2.2797,2.2816,2.2804,2.2806,2.2791,2.2799,2.2796,2.28,2.2788,2.2785,2.2786,2.2779,2.278,2.2806,2.283,2.2781,2.2782,2.2875,2.2878,2.2881,2.2928,0,0,0,0,0,0,2.2794,2.2797,2.2812,2.2805,2.2807,2.2839,2.2801,2.2797,2.2802,2.2798,2.2794,2.2791,2.2778,2.2804,2.2808,2.2831,2.2783,2.2873,2.2877,2.288,2.2924,2.2932,2.2938,0,0,0,0,0,2.2793,2.2825,2.2813,2.2816,2.2825,2.2841,2.2842,2.2825,2.2804,2.2819,2.2812,2.2792,2.2827,2.2807,2.2811,2.2835,2.2872,2.2876,2.288,2.2921,2.293,2.2938,0,0,0,0,0,0,2.2835,2.2824,2.281,2.2841,2.2842,2.2834,2.2852,2.2835,2.2842,2.2838,2.2817,2.2816,2.2846,2.2843,2.2821,2.2876,2.2846,2.2851,2.2876,2.2885,2.2892,2.2892,2.2784,0,0,0,0,0,2.2848,2.2862,2.2851,2.288,2.2881,2.2867,2.2873,2.286,2.286,2.286,2.2855,2.2857,2.2869,2.2877,2.2887,2.2924,2.2923,2.2942,2.295,2.2956,2.296,2.2981,2.299,2.2895,2.2895,2.2894,0,0,2.2875,2.2871,2.288,2.2888,2.2887,2.2902,2.2867,2.2884,2.2895,2.2863,2.2887,2.2884,2.2884,2.2917,2.293,2.2915,2.2986,2.2961,2.2965,2.2967,2.2986,2.2995,2.3003,2.2897,2.2897,2.2896,0,0,2.2932,2.293,2.2954,2.2954,2.2953,2.2944,2.295,2.2944,2.2941,2.2965,2.2941,2.2955,2.2975,2.2977,2.2981,2.304,2.3022,2.3044,2.3082,2.3102,2.311,2.3116,2.3138,2.3146,2.3049,2.3049,2.3049,0,2.2966,2.2987,2.2968,2.2987,2.2992,2.2964,2.2989,2.299,2.2993,2.2997,2.298,2.3006,2.3004,2.3037,2.3052,2.3056,2.3063,2.3044,2.311,2.3116,2.3122,2.3143,2.3151,2.3052,2.3051,2.3051,2.3051,0,2.3029,2.3044,2.3063,2.3067,2.3074,2.3096,2.3082,2.3091,2.3078,2.3071,2.3097,2.3094,2.3104,2.3111,2.3098,2.3142,2.3133,2.3113,2.3083,2.3134,2.3154,2.3161,2.3056,2.3055,2.3054,2.3053,0,0,2.3111,2.3105,2.3113,2.3115,2.3113,2.3125,2.3146,2.3156,2.3165,2.3168,2.3186,2.3205,2.3187,2.3191,2.3179,2.3197,2.3246,2.3175,2.3175,2.3189,2.3296,2.3311,2.332,2.3234,2.3235,2.3236,2.3296,0,2.3166,2.3202,2.3186,2.3224,2.3238,2.3213,2.3231,2.3233,2.3228,2.324,2.3234,2.3248,2.3223,2.3225,2.3242,2.3236,2.3267,2.3232,2.3251,2.3252,2.3252,2.333,2.3345,2.3402,2.3303,2.3304,2.3305,0,2.3235,2.3242,2.3281,2.3278,2.3283,2.33,2.3308,2.332,2.3322,2.3317,2.3323,2.3307,2.3329,2.3299,2.3329,2.3306,2.3313,2.3312,2.3314,2.3315,2.3282,2.3334,2.3419,2.3428,2.3317,2.3316,2.3315,0,2.3292,2.3311,2.3337,2.3339,2.3336,2.3349,2.3349,2.3349,2.3356,2.3364,2.3368,2.3379,2.3384,2.3393,2.3381,2.336,2.3414,2.3383,2.3411,2.3411,2.3423,2.3422,2.3511,2.3428,2.3427,2.3427,2.3427,0,2.3355,2.338,2.3362,2.3378,2.3406,2.3389,2.3417,2.3414,2.3415,2.3431,2.341,2.3425,2.3408,2.3422,2.3413,2.344,2.3443,2.344,2.3437,2.3442,2.3443,2.3446,2.3442,2.3429,2.3429,2.3429,2.3428,0,2.3423,2.3412,2.3439,2.3435,2.3434,2.3455,2.3451,2.3467,2.346,2.348,2.3484,2.3474,2.349,2.3479,2.3495,2.3488,2.3525,2.3516,2.3524,2.3522,2.3551,2.3549,2.3645,2.3658,2.3566,2.3567,2.3568,0,2.3464,2.3483,2.3481,2.349,2.3491,2.3505,2.3513,2.3498,2.3506,2.3511,2.3526,2.354,2.355,2.3577,2.3572,2.3584,2.3576,2.3609,2.3578,2.3583,2.3578,2.3577,2.3579,2.3616,2.3617,2.3618,2.3618,0,2.3539,2.3533,2.3544,2.3554,2.3564,2.3571,2.3576,2.3585,2.357,2.3581,2.3597,2.3605,2.3622,2.3636,2.3647,2.3647,2.3631,2.3628,2.3636,2.3641,2.3645,2.3644,2.3542,2.3626,2.3625,2.3625,2.3624,2.3624,2.3595,2.3611,2.3612,2.3626,2.3629,2.3635,2.3649,2.3645,2.3658,2.367,2.366,2.368,2.3683,2.3696,2.3698,2.3714,2.3701,2.3711,2.3714,2.3717,2.3721,2.3642,2.3716,2.3716,2.3715,2.3715,2.3715,0,2.3669,2.3669,2.3682,2.369,2.3702,2.3685,2.3691,2.3702,2.3719,2.3723,2.3734,2.3753,2.3768,2.3764,2.3778,2.3791,2.3784,2.3795,2.3794,2.3795,2.3732,2.3724,2.3801,2.3801,2.3801,2.3801,2.3801,2.3801,2.3709,2.3735,2.373,2.3758,2.3758,2.3777,2.3781,2.3788,2.3791,2.3813,2.3825,2.3823,2.3824,2.3838,2.3851,2.385,2.3856,2.387,2.3866,2.3808,2.3799,2.3791,2.3784,2.3872,2.3872,2.3928,2.3929,2.3929]}]]